Location: Assche-ter-Heiden
(50.9174°N, 4.1574°E)
Time: 13:32:44
(UTC+00:00)

STARLINK-66 - Pass Details

Date: 20 January 2020
Orbit: 404 x 406 km, 53.0° (Epoch: 28 February)

Event Time Altitude Azimuth Distance (km) Brightness Sun altitude
Exits shadow 04:55:24 - 166° (SSE) 1,730 6.3 -24.7°
Enters shadow 05:57:37 -66° 242° (WSW) 12,075 10.4 -15.0°
Maximum altitude 06:33:16 47° 151° (SSE) 557 4.1 -9.7°
